Union Aéronautique de la Côte d'Azur

Union Aéronautique de la Côte d'Azur
UACA
Approuvé A.T.O. EASA – N°FR.ATO.0108

UNION des aéroclubs
Cannes “Ailes d’Azur”, Nice “Côte d’Azur”, Grasse “St Exupery”, ACCA “Francis Séverac”

Un cache-pitot se trouve à bord de chaque avion. Pensez à le mettre en place à la fin de chaque vol !

Avant de quitter l'avion, vérifiez que vous n'emportez pas la checklist

Un vol ne s'entreprend qu'avec un pare-brise parfaitement propre, il en va de votre sécurité, et de celle des autres

Après chaque vol, merci de mettre en place les pares-soleil!


Météo à Cannes:
METAR
LFMD 041800Z AUTO VRB06KT 9000 RA FEW010/// BKN023/// OVC028/// ///CB 10/07 Q0991 TEMPO 2000 TSRA BKN014 SCT025CB =
LFMD 041400Z 0415/0515 36005KT 9999 FEW050 SCT060 BKN080 TEMPO 0415/0422 4000 SHRA SCT035TCU PROB40 TEMPO 0417/0421 VRB10G25KT 2000 TSRA BKN014 SCT025CB PROB40 TEMPO 0512/0515 RA BKN014

TAF
LFMD 041400Z 0415/0515 36005KT 9999 FEW050 SCT060 BKN080 TEMPO 0415/0422 4000 SHRA SCT035TCU PROB40 TEMPO 0417/0421 VRB10G25KT 2000 TSRA BKN014 SCT025CB PROB40 TEMPO 0512/0515 RA BKN014 =

SR / SS: 06:53 / 15:51 UTC (LFMD 2020-12-04)